Showing default

GALILEO 6 (262), 40129

Orbit data source: Space-Track

GALILEO 6 (262), 40129 is a payload satellite owned by GNSS Agency (ESA) in MEO that was launched on Fri, 22 Aug 2014 UTC via a SOYUZ-ST-B launch vehicle from the French Guiana (FRGUI). Payload-class satellites include a variety of spacecraft equipped with specific instruments for various scientific and technological missions. These include communications satellites like Starlink; space stations such as the ISS; scientific satellites like the Hubble; Earth observation satellites from companies like Planet Labs, Umbra, and HawkEye 360; GPS; miniature CubeSats for education and research; and military/defense satellites.

Loading next visibility...
Identifier
40129, 2014-050B
Orbit
MEO
Country
Flag of ESAESA
Related business
Manufacturer
OHB
Mission
On reserve Civil Navigation
Bus & Motor
GALILEOSAT, AOCS
Mass
733 kg wet, 700 kg dry
Launch date (UTC)
2014-08-22 (12 years ago)
Launch vehicle
SOYUZ-ST-B
Launch site
French Guiana (FRGUI)
Object type
Payload
Rocket body
Debris
Shape & HBR
Box + 2 Pan, 7.3 m
Radar Cross Section
9.223 m², Large (>1 m²)

Expand to show TLE details & history
Last TLE update: 6 hours ago

TLE from 6 hours ago
0 GALILEO 6 (262)
1 40129U 14050B   26168.13349216 -.00000048  00000-0  00000+0 0  9990
2 40129  48.8923 272.5241 1675793 180.1173 179.8932  1.85520514 80484
Epoch: 2026-06-17T03:12Z
TLE epoch observation values (Epoch: 2026-06-17T03:12:13.722Z)
Latitude
0.00002°
Longitude
-40.9349°
Altitude
26,295.588 km
Speed
3.186 km/s
True Right ascension
18h 10m 04s
True Declination
0° 00' 00"
Sunlit
Object was in daylight at epoch
Visualization orbit readout
Latitude
Unknown
Longitude
Unknown
Altitude
Unknown
Speed
Unknown
Apparent Right ascension
Unknown
Apparent Declination
Unknown
Sunlit
N/A
Visualization observer readout
Local Sidereal Time
19:27:15
Azimuth
Unknown
Elevation
Unknown
Doppler factor
Unknown
Orbital elements
Apogee altitude
26,287.991 km
Perigee altitude
16,911.04 km
Semi-major axis
27,977.652 km
Eccentricity
0.16758
Inclination
48.8923°
RAAN
272.5241°
Arg. of periapsis
180.1173°
True anomaly
179.92277°
Mean anomaly
179.8932°
Eccentric anomaly
179.90853°
Mean motion
0.4638 °/min
Orbital period
776.2 mins
BSTAR
0
Loading maneuver chart data...
Computing Atmospheric mass density...
Loading historical data...
Loading historical data...
Loading historical data...
Loading historical data...
Loading historical data...
Loading historical data...
Loading historical data...
Other satellites on launch #50 in the year 2014 (2014-08-22 UTC)

Documentation

Showing up to 5 results
|